WetterOnline ( https://www.wetteronline.ch )

Wetter aktuell Olbernhau

Aktuelles Wetter: Marienberg (640m)

6-stündlich | Neueste Meldungen
Ortszeit Temperatur Wetter
Do, 22.08. 2:00 9.0° C wolkig
Mi, 21.08. 20:00 15.8° C wolkenlos
Mi, 21.08. 14:00 17.7° C leicht bewölkt
Mi, 21.08. 8:00 11.3° C fast wolkenlos
Mi, 21.08. 2:00 11.8° C leichter Regen
Di, 20.08. 20:00 14.4° C leichter Regen
Di, 20.08. 14:00 20.5° C wolkig
Di, 20.08. 8:00 15.0° C bewölkt
Ortszeit Temperatur Wetter
Do, 22.08. 7:00 8.4° C leicht bewölkt
Do, 22.08. 6:40 8.2° C leicht bewölkt
Do, 22.08. 6:30 8.3° C leicht bewölkt
Do, 22.08. 6:20 8.3° C leicht bewölkt
Do, 22.08. 6:10 8.6° C fast wolkenlos
Do, 22.08. 6:00 8.3° C leicht bewölkt
Do, 22.08. 5:50 8.3° C leicht bewölkt
Do, 22.08. 5:30 8.4° C wolkig
Do, 22.08. 5:00 8.7° C wolkig
Do, 22.08. 4:30 9.3° C bedeckt
Do, 22.08. 4:00 9.5° C bedeckt
Ortszeit Relative Feuchte Sichtweite
Do, 22.08. 2:00 91% 35 km
Mi, 21.08. 20:00 61% 55 km
Mi, 21.08. 14:00 55% 45 km
Mi, 21.08. 8:00 93% 27 km
Mi, 21.08. 2:00 98% 8 km
Di, 20.08. 20:00 86% 14 km
Di, 20.08. 14:00 46% 65 km
Di, 20.08. 8:00 93% 30 km
Ortszeit Relative Feuchte Sichtweite
Do, 22.08. 7:00 95% 25 km
Do, 22.08. 6:40 95% -
Do, 22.08. 6:30 94% 23 km
Do, 22.08. 6:20 94% -
Do, 22.08. 6:10 93% -
Do, 22.08. 6:00 94% 28 km
Do, 22.08. 5:50 94% -
Do, 22.08. 5:30 93% 29 km
Do, 22.08. 5:00 90% 35 km
Do, 22.08. 4:30 90% 35 km
Do, 22.08. 4:00 88% 40 km
Ortszeit Niederschlagsmenge Niederschlagsart
Do, 22.08. 2:00 0.0 l/m2 in 6 Std. -
Mi, 21.08. 20:00 0.0 l/m2 in 12 Std. -
Mi, 21.08. 14:00 0.0 l/m2 in 6 Std. -
Mi, 21.08. 8:00 9 l/m2 in 12 Std. Regen
Mi, 21.08. 2:00 9 l/m2 in 6 Std. Regen
Di, 20.08. 20:00 1 l/m2 in 12 Std. Regen
Di, 20.08. 14:00 0.0 l/m2 in 6 Std. -
Di, 20.08. 8:00 0.0 l/m2 in 12 Std. -
Ortszeit Niederschlagsmenge Niederschlagsart
Do, 22.08. 7:00 0.0 l/m2 in 1 Std. -
Do, 22.08. 6:40 keine Meldung -
Do, 22.08. 6:30 0.0 l/m2 in 1 Std. -
Do, 22.08. 6:20 keine Meldung -
Do, 22.08. 6:10 keine Meldung -
Do, 22.08. 6:00 0.0 l/m2 in 1 Std. -
Do, 22.08. 5:50 keine Meldung -
Do, 22.08. 5:30 0.0 l/m2 in 1 Std. -
Do, 22.08. 5:00 0.0 l/m2 in 1 Std. -
Do, 22.08. 4:30 0.0 l/m2 in 1 Std. -
Do, 22.08. 4:00 0.0 l/m2 in 1 Std. -
Ortszeit Stärke Spitze Richtung
km/h Bft. km/h Grad Sektor
Do, 22.08. 2:00 0 0 7 - -
Mi, 21.08. 20:00 6 1 20 30° NO
Mi, 21.08. 14:00 7 2 22 350° N
Mi, 21.08. 8:00 7 2 18 260° W
Mi, 21.08. 2:00 7 2 25 300° NW
Di, 20.08. 20:00 9 2 20 290° W
Di, 20.08. 14:00 6 1 19 20° N
Di, 20.08. 8:00 0 0 7 - -
Ortszeit Stärke Spitze Richtung
km/h Bft. km/h Grad Sektor
Do, 22.08. 7:00 4 1 4 230° SW
Do, 22.08. 6:40 4 1 - 260° W
Do, 22.08. 6:30 4 1 4 160° S
Do, 22.08. 6:20 4 1 - 160° S
Do, 22.08. 6:10 4 1 - 150° SO
Do, 22.08. 6:00 4 1 4 200° S
Do, 22.08. 5:50 4 1 - 200° S
Do, 22.08. 5:30 0 0 4 - -
Do, 22.08. 5:00 2 1 6 260° W
Do, 22.08. 4:30 2 1 6 200° S
Do, 22.08. 4:00 4 1 7 200° S
Ortszeit Untergrenze Bedeckung Gattung
total tief tief mittel hoch
Do, 22.08. 2:00 7500 m 8/8 0/8 - - -
Mi, 21.08. 20:00 9000 m 0/8 0/8 - - -
Mi, 21.08. 14:00 1080 m 2/8 4/8 - - -
Mi, 21.08. 8:00 9000 m 2/8 0/8 - - -
Mi, 21.08. 2:00 120 m 7/8 7/8 - - -
Di, 20.08. 20:00 1500 m 7/8 7/8 - - -
Di, 20.08. 14:00 1800 m 8/8 2/8 - - -
Di, 20.08. 8:00 2100 m 8/8 5/8 - - -
Ortszeit Bedeckungsgrad in Achtel und Wolkenuntergrenze
Do, 22.08. 7:00 2(7200m) 6(8400m) 6(9000m)
Do, 22.08. 6:40 5(8400m) 5(9000m)
Do, 22.08. 6:30 3(8700m)
Do, 22.08. 6:20 3(8700m)
Do, 22.08. 6:10 1(9000m)
Do, 22.08. 6:00 4(7200m) 6(9000m)
Do, 22.08. 5:50 4(7200m) 6(9000m)
Do, 22.08. 5:30 6(7200m) 8(9000m) 8(10500m)
Do, 22.08. 5:00 4(7500m) 5(8400m) 8(10500m)
Do, 22.08. 4:30 8(6600m) 8(10500m) 8(10500m)
Do, 22.08. 4:00 8(6900m)
Ortszeit Luftdruck NN (hPa) Tendenz (hPa in 3 Std.)
Do, 22.08. 2:00 1030 - 0,2
Mi, 21.08. 20:00 1028 - 0,1
Mi, 21.08. 14:00 1028 - 0,2
Mi, 21.08. 8:00 1029 + 1,4
Mi, 21.08. 2:00 1026 + 0,7
Di, 20.08. 20:00 1023 + 0,9
Di, 20.08. 14:00 1020 - 0,3
Di, 20.08. 8:00 1021 + 0,5
Ortszeit Luftdruck NN (hPa) Tendenz (hPa in 3 Std.)
Do, 22.08. 7:00 1030 0,0
Do, 22.08. 6:40 1030 keine Meldung
Do, 22.08. 6:30 1030 - 0,2
Do, 22.08. 6:20 1030 keine Meldung
Do, 22.08. 6:10 1030 keine Meldung
Do, 22.08. 6:00 1030 - 0,1
Do, 22.08. 5:50 1030 keine Meldung
Do, 22.08. 5:30 1030 - 0,2
Do, 22.08. 5:00 1030 - 0,7
Do, 22.08. 4:30 1029 - 0,8
Do, 22.08. 4:00 1029 - 0,7
Ortszeit Schneehöhe (cm)
Do, 22.08. 2:00 -
Mi, 21.08. 20:00 -
Mi, 21.08. 14:00 -
Mi, 21.08. 8:00 -
Mi, 21.08. 2:00 -
Di, 20.08. 20:00 -
Di, 20.08. 14:00 -
Di, 20.08. 8:00 -
Ortszeit Schneehöhe (cm)
Do, 22.08. 7:00 -
Do, 22.08. 6:40 -
Do, 22.08. 6:30 -
Do, 22.08. 6:20 -
Do, 22.08. 6:10 -
Do, 22.08. 6:00 -
Do, 22.08. 5:50 -
Do, 22.08. 5:30 -
Do, 22.08. 5:00 -
Do, 22.08. 4:30 -
Do, 22.08. 4:00 -
Link zu dieser Seite / Seite empfehlen

Das Wetter in ...